Content
SEND FEEDBACK

Daily
Averages
Monthly
Summary
United States of America

GREENFIELD, MASSACHUSETTS


Home > North America > United States > Massachusetts
Elevation: 190 feet     Latitude: 42 37N     Longitude: 072 33W

WEATHER
 
SELECT A DAY
Number of Records: 215,697;   Date Range: 7/1/96 - 10/19/14
 
SHARE

PRINT THIS DATA

[ ← Previous Day ]
WEATHER ALMANAC - DECEMBER 17, 2013
[ Next Day → ]
[ °C ]   °F
Weather ElementAverageHighLow
Temperature8.3 °F12.9 °F (9:52 pm)-8 °F (6:52 am)
Dewpoint4.8 °F9 °F (4:22 pm)-11.9 °F (6:52 am)
Humidity85.2 %95 % (10:44 am)80 % (1:52 pm)
Barometer30.11 in30.26 in (6:52 am)30.01 in (10:06 pm)
Wind Speed3.9 mph9.2 mph (5:08 pm)
Weather ElementAverage
Visibility3.2 mi
Wind DirectionSSE (159.8 °)

Weather ElementTotal
Precipitation0.65 in
Heating Degree Days62.6 (Base 65)
Averaged from 56 records on December 17, 2013
WEATHER CONDITIONS BREAKOUT
WIND DIRECTION BREAKOUT
WEATHER BY HOUR - DECEMBER 17, 2013
[ °C ]   °F
Local TimeTemperatureDewpointHumidityBarometerVisibilityWind DirectionWind SpeedGust SpeedPrecipitationEventsConditions
2:52 AM-0.9 °F-4.0 °F87 %30.25 in10.0 miCalmClear
3:52 AM-2.9 °F-5.1 °F90 %30.25 in10.0 miCalmClear
4:52 AM-5.1 °F-8.0 °F87 %30.25 in10.0 miCalmClear
5:52 AM-5.1 °F-9.0 °F83 %30.25 in10.0 miCalmClear
6:52 AM-8.0 °F-11.9 °F83 %30.26 in10.0 miCalmClear
7:52 AM-6.0 °F-9.9 °F83 %30.24 in10.0 miCalmClear
8:52 AM-2.9 °F-7.1 °F82 %30.26 in10.0 miCalmMostly Cloudy
9:52 AM1.9 °F-0.9 °F88 %30.26 in9.0 miCalmOvercast
10:11 AM3.0 °F0.0 °F87 %30.21 in1.8 miCalm0.00 inSnowLight Snow
10:24 AM3.0 °F1.0 °F91 %30.20 in1.5 miCalm0.00 inSnowLight Snow
10:44 AM6.1 °F5.0 °F95 %30.20 in2.0 miCalm0.00 inSnowLight Snow
10:52 AM7.0 °F3.0 °F84 %30.24 in1.8 miCalm0.00 inSnowLight Snow
10:58 AM6.1 °F1.9 °F83 %30.19 in2.0 miCalm0.00 inSnowLight Snow
11:04 AM6.1 °F1.9 °F83 %30.18 in1.2 miCalm0.00 inSnowLight Snow
11:09 AM6.1 °F3.0 °F87 %30.18 in0.8 miCalm0.00 inSnowLight Snow
11:18 AM7.0 °F3.0 °F84 %30.17 in1.0 miCalm0.00 inSnowLight Snow
11:52 AM8.1 °F6.1 °F92 %30.18 in0.5 miCalm0.02 inFog-SnowSnow
12:52 PM10.0 °F7.0 °F87 %30.14 in0.8 miCalm0.03 inSnowLight Snow
1:06 PM10.0 °F7.0 °F87 %30.09 in1.2 miCalm0.01 inSnowLight Snow
1:08 PM10.0 °F7.0 °F87 %30.09 in1.5 miCalm0.01 inSnowLight Snow
1:32 PM10.9 °F8.1 °F88 %30.08 in2.0 miCalm0.01 inSnowLight Snow
1:47 PM10.4 °F8.6 °F92 %30.07 in1.5 miCalm0.02 inSnowLight Snow
1:52 PM12.0 °F7.0 °F80 %30.11 in1.2 miEast (90°)6.9 mph0.02 inSnowLight Snow
2:03 PM12.0 °F8.1 °F84 %30.07 in1.0 miENE (60°)5.8 mph0.00 inSnowLight Snow
2:11 PM12.0 °F8.1 °F84 %30.07 in1.5 miENE (60°)4.6 mph0.00 inSnowLight Snow
2:18 PM12.0 °F7.0 °F80 %30.06 in3.0 miENE (70°)5.8 mph0.00 inSnowLight Snow
2:27 PM12.0 °F7.0 °F80 %30.06 in1.8 miNE (50°)4.6 mph0.01 inSnowLight Snow
2:37 PM12.0 °F8.1 °F84 %30.05 in1.0 miCalm0.01 inSnowLight Snow
2:44 PM12.0 °F8.1 °F84 %30.06 in0.5 miEast (80°)3.5 mph0.02 inFog-SnowSnow
2:52 PM12.0 °F8.1 °F84 %30.10 in0.2 miNNE (30°)3.5 mph0.02 inFog-SnowSnow
3:52 PM12.0 °F8.1 °F84 %30.10 in0.5 miNorth (350°)4.6 mph0.05 inFog-SnowSnow
4:22 PM12.0 °F9.0 °F88 %30.05 in0.8 miNNW (330°)6.9 mph0.02 inSnowLight Snow
4:42 PM12.0 °F9.0 °F88 %30.06 in0.8 miNNW (330°)5.8 mph0.03 inSnowLight Snow
4:52 PM12.0 °F9.0 °F88 %30.09 in0.8 miNorth (360°)6.9 mph0.04 inSnowLight Snow
5:04 PM12.0 °F8.1 °F84 %30.05 in0.8 miNorth (350°)8.1 mph0.00 inSnowLight Snow
5:08 PM12.0 °F8.1 °F84 %30.05 in1.2 miNNW (340°)9.2 mph0.01 inSnowLight Snow
5:28 PM12.0 °F8.1 °F84 %30.07 in1.0 miNW (310°)8.1 mph0.01 inSnowLight Snow
5:39 PM10.9 °F8.1 °F88 %30.05 in0.8 miNNW (340°)6.9 mph0.02 inSnowLight Snow
5:52 PM12.0 °F8.1 °F84 %30.10 in0.5 miNNW (330°)6.9 mph0.04 inFog-SnowSnow
6:16 PM10.9 °F7.0 °F84 %30.06 in1.0 miNW (310°)6.9 mph0.02 inSnowLight Snow
6:27 PM10.9 °F7.0 °F84 %30.06 in1.2 miNW (320°)8.1 mph0.02 inSnowLight Snow
6:34 PM10.9 °F7.0 °F84 %30.06 in1.2 miNNW (330°)8.1 mph0.02 inSnowLight Snow
6:52 PM10.9 °F7.0 °F84 %30.10 in1.2 miNW (320°)5.8 mph0.02 inSnowLight Snow
6:56 PM10.9 °F7.0 °F84 %30.05 in1.0 miNW (320°)6.9 mph0.00 inSnowLight Snow
7:07 PM10.0 °F7.0 °F87 %30.05 in0.5 miNNW (330°)5.8 mph0.02 inFog-SnowSnow
7:14 PM10.0 °F7.0 °F87 %30.04 in0.5 miNW (320°)5.8 mph0.03 inFog-SnowSnow
7:27 PM10.0 °F7.0 °F87 %30.03 in1.0 miNNW (330°)4.6 mph0.03 inSnowLight Snow
7:33 PM10.9 °F7.0 °F84 %30.03 in1.5 miNNW (330°)5.8 mph0.03 inSnowLight Snow
7:39 PM10.9 °F7.0 °F84 %30.02 in2.0 miNW (320°)6.9 mph0.03 inSnowLight Snow
7:52 PM10.9 °F7.0 °F84 %30.07 in2.0 miNW (310°)9.2 mph0.03 inSnowLight Snow
8:00 PM10.0 °F6.1 °F84 %30.02 in3.0 miNW (320°)9.2 mph0.00 inSnowLight Snow
8:52 PM10.9 °F7.0 °F84 %30.06 in9.0 miNW (320°)8.1 mph0.00 inOvercast
9:52 PM12.9 °F8.1 °F81 %30.05 in10.0 miNNW (330°)6.9 mphOvercast
10:06 PM12.0 °F8.1 °F84 %30.01 in10.0 miNNW (330°)5.8 mphOvercast
10:52 PM12.9 °F8.1 °F81 %30.01 in10.0 miNW (310°)4.6 mphOvercast
11:52 PM12.9 °F8.1 °F81 %30.01 in10.0 miNW (320°)9.2 mphOvercast
Hourly data recorded from KORE, located miles away from Greenfield, Massachusetts







STORIES FROM OUR PARTNERS